This is the latest recevied weather packets stored in our database for station/object W5GMO. If no packets are shown the sender has not sent any weather packets the latest 10 day(s).
| Time | Temp. | Humidity | Pressure | Rain* | Wind** | Luminosity | Snow |
|---|---|---|---|---|---|---|---|
| 1777547896 | 12.22° C | 92% | 1008.8 hPa | 0 mm | - | 51 W/m² | - |
| 1777546380 | 11.67° C | 93% | 1009.1 hPa | 0 mm | - | 28 W/m² | - |
| 1777546077 | 11.67° C | 93% | 1008.9 hPa | 0 mm | - | 22 W/m² | - |
| 1777545773 | 11.67° C | 93% | 1008.9 hPa | 0 mm | - | 18 W/m² | - |
| 1777545470 | 11.67° C | 94% | 1008.9 hPa | 0 mm | - | 14 W/m² | - |
| 1777545167 | 11.67° C | 94% | 1008.7 hPa | 0 mm | - | 12 W/m² | - |
| 1777544865 | 11.67° C | 94% | 1008.4 hPa | 0 mm | - | 8 W/m² | - |
| 1777544560 | 11.67° C | 94% | 1008.5 hPa | 0 mm | - | 5 W/m² | - |
| 1777544257 | 11.67° C | 95% | 1008.5 hPa | 0 mm | - | 3 W/m² | - |
| 1777543954 | 11.67° C | 95% | 1008.6 hPa | 0 mm | - | 2 W/m² | - |
| 1777543651 | 11.67° C | 95% | 1008.2 hPa | 0 mm | - | 1 W/m² | - |
| 1777543042 | 11.67° C | 95% | 1008.1 hPa | 0 mm | - | 0 W/m² | - |
| 1777542738 | 11.67° C | 95% | 1008.1 hPa | 0 mm | - | 0 W/m² | - |
| 1777542436 | 11.67° C | 96% | 1008.3 hPa | 0 mm | - | 0 W/m² | - |
| 1777542132 | 11.11° C | 96% | 1008.2 hPa | 0 mm | - | 0 W/m² | - |
| 1777541829 | 11.11° C | 96% | 1008.4 hPa | 0 mm | - | 0 W/m² | - |
| 1777541526 | 11.11° C | 96% | 1008.3 hPa | 0 mm | - | 0 W/m² | - |
| 1777541222 | 11.11° C | 96% | 1008.3 hPa | 0 mm | - | 0 W/m² | - |
| 1777540919 | 11.11° C | 96% | 1008.2 hPa | 0 mm | - | 0 W/m² | - |
| 1777540616 | 10.56° C | 96% | 1008.2 hPa | 0 mm | - | 0 W/m² | - |
| 1777540313 | 10.56° C | 96% | 1008.3 hPa | 0 mm | - | 0 W/m² | - |
| 1777540009 | 10.56° C | 96% | 1008.3 hPa | 0 mm | - | 0 W/m² | - |
| 1777539705 | 10.56° C | 95% | 1008.3 hPa | 0 mm | - | 0 W/m² | - |
| 1777538795 | 10.56° C | 95% | 1008.4 hPa | 0 mm | - | 0 W/m² | - |
| 1777538191 | 10.56° C | 95% | 1008.3 hPa | 0 mm | - | 0 W/m² | - |
* Rain latest hour (hover to see other rain measurements)
** Current wind speed in m/s (hover to see current wind gust speed)